Location: Wildlife_Club
(35.6000°N, 81.4330°W)
Time: 18:16:11
(UTC-04:00)

A-11 Canister half - Pass Details

Date: 21 June 2019
Orbit: 1527 x 1682 km, 47.3° (Epoch: 13 October)

Event Time Altitude Azimuth Distance (km) Brightness Sun altitude
Exits shadow 03:04:52 13° 145° (SE) 3,527 10.6 -26.6°
Maximum altitude 03:07:59 15° 124° (ESE) 3,340 10.7 -26.3°
Drops below altitude 10° 03:12:52 10° 92° (E) 3,732 11.3 -25.9°
Sets 03:17:35 0° 71° (ENE) 4,698 12.2 -25.5°
